Hagerstown, MD

3:01 AM EST on December 16, 2019 (GMT -0500)
Hagerstown Regional-Henson

Weather History for KHGR - August, 2019

Change the Weather History Date:

Friday, August 30, 2019

  Actual Average Record
Temperature  
Mean Temperature 74 °F 71 °F  
Max Temperature 89 °F 81 °F 94 °F (2010)
Min Temperature 59 °F 62 °F 53 °F (1999)
Degree Days  
Heating Degree Days 0 0  
Month to date heating degree days 0 0  
Since 1 June heating degree days 5 18  
Since 1 July heating degree days 0 0  
Cooling Degree Days 9 6  
Month to date cooling degree days 332 255  
Year to date cooling degree days 1199 861  
Since 1 June cooling degree days 1017 785  
Growing Degree Days 24 (Base 50)    
Moisture  
Dew Point 58 °F    
Average Humidity 59    
Maximum Humidity 78    
Minimum Humidity 40    
Precipitation  
Precipitation 0.00 in 0.11 in 0.10 in (2003)
Month to date precipitation 2.40 3.05  
Year to date precipitation 28.37 26.54  
Sea Level Pressure  
Sea Level Pressure 30.08 in    
Wind  
Wind Speed 6 mph (SSW)    
Max Wind Speed 14 mph    
Max Gust Speed 20 mph    
Visibility 10 miles    
Events      
T = Trace of Precipitation, MM = Missing Value Source: NWS Daily Summary

Daily Weather History Graph

Daily Weather History Graph

Search for Another Location

Airport or City:

Astronomy

Aug. 30, 2019 Rise Set
Actual Time 6:36 AM EDT 7:45 PM EDT
Civil Twilight 6:09 AM EDT 8:13 PM EDT
Nautical Twilight 5:35 AM EDT 8:46 PM EDT
Astronomical Twilight 5:01 AM EDT 9:20 PM EDT
Moon 6:35 AM EDT (8/30) 8:20 PM EDT (8/30)
Length of Visible Light 14h 04m
Length of Day
13h 08m
New Moon, 0% of the Moon is Illuminated
Aug 30
New Moon
Sep 5
First Quarter
Sep 14
Full
Sep 21
Last Quarter
Sep 28
New

Hourly Weather History & Observations

Time (EDT) Temp. Heat Index Dew Point Humidity Pressure Visibility Wind Dir Wind Speed Gust Speed Precip Events Conditions
12:53 AM 66.9 °F - 54.0 °F 63% 30.07 in 10.0 mi WSW 3.5 mph - N/A   Clear
1:53 AM 62.1 °F - 54.0 °F 75% 30.07 in 10.0 mi South 5.8 mph - N/A   Clear
2:53 AM 63.0 °F - 54.0 °F 72% 30.07 in 10.0 mi South 4.6 mph - N/A   Clear
3:53 AM 62.1 °F - 54.0 °F 75% 30.06 in 10.0 mi South 6.9 mph - N/A   Clear
4:53 AM 61.0 °F - 54.0 °F 78% 30.07 in 10.0 mi South 6.9 mph - N/A   Clear
5:53 AM 61.0 °F - 54.0 °F 78% 30.06 in 10.0 mi SSE 6.9 mph - N/A   Clear
6:53 AM 61.0 °F - 54.0 °F 78% 30.08 in 10.0 mi South 6.9 mph - N/A   Clear
7:53 AM 64.0 °F - 55.0 °F 73% 30.08 in 10.0 mi South 5.8 mph - N/A   Clear
8:53 AM 66.9 °F - 55.0 °F 66% 30.10 in 10.0 mi South 5.8 mph - N/A   Partly Cloudy
9:53 AM 72.0 °F - 55.0 °F 55% 30.11 in 10.0 mi SSW 8.1 mph - N/A   Clear
10:53 AM 75.9 °F - 55.9 °F 50% 30.10 in 10.0 mi South 10.4 mph - N/A   Clear
11:53 AM 80.1 °F 80.6 °F 57.9 °F 47% 30.09 in 10.0 mi South 12.7 mph - N/A   Clear
12:53 PM 82.9 °F 82.8 °F 59.0 °F 44% 30.07 in 10.0 mi South 9.2 mph - N/A   Partly Cloudy
1:53 PM 84.9 °F 85.0 °F 61.0 °F 44% 30.07 in 10.0 mi West 8.1 mph - N/A   Overcast
2:53 PM 84.9 °F 84.4 °F 59.0 °F 41% 30.06 in 10.0 mi SW 8.1 mph - N/A   Mostly Cloudy
3:53 PM 86.0 °F 85.7 °F 60.1 °F 41% 30.04 in 10.0 mi South 6.9 mph 17.3 mph N/A   Mostly Cloudy
4:53 PM 88.0 °F 87.9 °F 61.0 °F 40% 30.04 in 10.0 mi WSW 10.4 mph - N/A   Mostly Cloudy
5:53 PM 87.1 °F 87.0 °F 61.0 °F 41% 30.04 in 10.0 mi SW 4.6 mph - N/A   Mostly Cloudy
6:53 PM 84.9 °F 85.0 °F 61.0 °F 44% 30.05 in 10.0 mi NNW 6.9 mph - N/A   Clear
7:53 PM 82.0 °F 82.4 °F 60.1 °F 47% 30.07 in 10.0 mi North 5.8 mph - N/A   Clear
8:53 PM 80.1 °F 80.7 °F 59.0 °F 48% 30.10 in 10.0 mi NNE 3.5 mph - N/A   Clear
9:53 PM 75.9 °F - 60.1 °F 58% 30.12 in 10.0 mi East 5.8 mph - N/A   Clear
10:53 PM 73.9 °F - 62.1 °F 66% 30.13 in 10.0 mi Calm Calm - N/A   Clear
11:53 PM 72.0 °F - 63.0 °F 73% 30.13 in 10.0 mi South 4.6 mph - N/A   Clear